CW4489 Marathon FL US current weather conditions

sailwx.info

Wind from 187 at 2 knots gusting 4

Air temperature 31.7° C
Dewpoint 26.2° C

Last reported at 2014-Jul-24 18:54 UTC.
Time now 2014-Jul-24 19:18 UTC

Location: N 24°44' W 081°02'.
View on Google Maps.

See reports from other nearby stations

  
Tides and Currents Weather Stations Pressure Air Temp Water Temp Dewpoint Dewpoint Depression Visibility Wind Speed Wind Dir Waves Ship Positions
date/time (UTC)wind fromknots sea level pressurealtimeterstation pressurevisibilityair tempwater tempwave heightnotes
2014-Jul-24 18:54 187 2 gusting 4 31.7
2014-Jul-24 18:44 196 2 gusting 3 31.7
2014-Jul-24 18:14 188 1 gusting 2 32.2
2014-Jul-24 18:04 169 0 gusting 5 31.7
2014-Jul-24 17:54 165 1 gusting 3 32.2
2014-Jul-24 17:34 167 3 gusting 3 31.1
2014-Jul-24 17:24 165 1 gusting 1 31.1
2014-Jul-24 17:14 133 3 gusting 5 30.0
2014-Jul-24 16:54 164 1 gusting 3 31.7
2014-Jul-24 16:44 202 32.2
2014-Jul-24 16:14 161 3 gusting 3 32.2
2014-Jul-24 16:04 148 4 gusting 5 32.2
2014-Jul-24 15:24 124 0 gusting 5 31.7
2014-Jul-24 15:14 115 2 gusting 4 31.1
2014-Jul-24 15:04 163 2 gusting 2 31.1
2014-Jul-24 14:54 143 3 gusting 5 30.6
2014-Jul-24 14:24 131 2 gusting 5 29.4
2014-Jul-24 13:54 117 2 gusting 3 30.0
2014-Jul-24 13:44 130 2 gusting 6 30.0
2014-Jul-24 13:24 103 1 gusting 3 29.4
2014-Jul-24 13:14 074 0 gusting 6 29.4
2014-Jul-24 12:54 137 2 gusting 5 30.0
2014-Jul-24 12:44 136 2 gusting 2 29.4
2014-Jul-24 12:34 138 28.9
2014-Jul-24 12:24 132 2 gusting 2 28.9
2014-Jul-24 12:04 138 3 gusting 3 28.9
2014-Jul-24 11:34 142 28.9
2014-Jul-24 11:24 142 0 gusting 2 28.9
2014-Jul-24 11:14 153 1 gusting 3 28.3
2014-Jul-24 10:44 157 0 gusting 4 28.9
2014-Jul-24 10:34 170 0 gusting 4 28.9
2014-Jul-24 10:24 159 28.9
2014-Jul-24 10:14 175 1 gusting 5 28.9
2014-Jul-24 09:54 152 2 gusting 3 28.9
2014-Jul-24 09:44 120 0 gusting 2 28.9
2014-Jul-24 09:34 123 28.9
2014-Jul-24 09:14 142 2 gusting 2 29.4
2014-Jul-24 09:04 144 2 gusting 2 29.4
2014-Jul-24 08:34 151 4 gusting 6 28.9
2014-Jul-24 08:24 174 2 gusting 4 28.9
2014-Jul-24 08:04 138 5 gusting 5 29.4
2014-Jul-24 07:54 146 2 gusting 3 29.4
2014-Jul-24 07:44 142 3 gusting 4 28.9
2014-Jul-24 07:24 122 0 gusting 3 29.4
2014-Jul-24 07:14 153 3 gusting 4 29.4
2014-Jul-24 06:54 123 2 gusting 3 29.4
2014-Jul-24 06:34 127 1 gusting 5 29.4
2014-Jul-24 06:24 124 1 gusting 2 29.4
2014-Jul-24 06:14 147 2 gusting 2 29.4
2014-Jul-24 06:04 132 2 gusting 5 29.4
2014-Jul-24 05:54 132 1 gusting 2 29.4
2014-Jul-24 05:44 144 29.4
2014-Jul-24 04:54 146 0 gusting 3 29.4
2014-Jul-24 04:44 135 0 gusting 2 29.4
2014-Jul-24 04:24 090 29.4
2014-Jul-24 03:44 079 29.4
2014-Jul-24 03:24 093 0 gusting 2 29.4
2014-Jul-24 03:14 094 29.4
2014-Jul-24 03:04 096 0 gusting 3 29.4
2014-Jul-24 02:54 071 2 gusting 2 29.4
2014-Jul-24 02:24 067 2 gusting 2 30.0
2014-Jul-24 02:14 067 29.4
2014-Jul-24 02:04 062 29.4
2014-Jul-24 01:44 080 30.0
2014-Jul-24 01:34 112 30.0
2014-Jul-24 01:24 112 30.0
2014-Jul-24 01:14 112 30.0
2014-Jul-24 00:44 140 0 gusting 2 30.0
2014-Jul-24 00:34 136 0 gusting 1 30.0
2014-Jul-24 00:04 136 30.6
2014-Jul-23 23:54 136 0 gusting 1 30.6
2014-Jul-23 23:44 136 1 gusting 2 31.1
2014-Jul-23 23:34 137 31.1
2014-Jul-23 23:24 137 0 gusting 1 31.1
2014-Jul-23 23:14 136 31.1
2014-Jul-23 22:24 139 2 gusting 2 31.1
2014-Jul-23 22:14 129 1 gusting 2 31.1
2014-Jul-23 21:44 204 2 gusting 3 31.1
2014-Jul-23 21:34 198 2 gusting 3 31.1
2014-Jul-23 20:54 196 2 gusting 3 31.1
2014-Jul-23 20:34 196 1 gusting 3 31.7
2014-Jul-23 20:24 197 2 gusting 2 31.1
2014-Jul-23 20:04 186 0 gusting 2 31.7
2014-Jul-23 19:54 184 1 gusting 2 31.7
2014-Jul-23 19:34 181 2 gusting 3 31.7
2014-Jul-23 19:24 177 2 gusting 2 32.2
2014-Jul-23 19:04 197 1 gusting 2 31.1
2014-Jul-23 18:54 197 3 gusting 3 30.6
2014-Jul-23 18:24 225 2 gusting 2 30.0
2014-Jul-23 17:44 250 1 gusting 4 27.2
2014-Jul-23 17:34 276 5 gusting 10 27.8
2014-Jul-23 17:24 246 4 gusting 6 28.3
2014-Jul-23 17:04 232 3 gusting 4 30.0
2014-Jul-23 16:54 184 6 gusting 6 32.2
2014-Jul-23 16:25 167 4 gusting 5 31.7
2014-Jul-23 15:55 135 1 gusting 6 31.1
2014-Jul-23 15:44 134 4 gusting 4 30.0
2014-Jul-23 14:54 086 3 gusting 5 31.1
2014-Jul-23 14:34 171 4 gusting 6 31.1
2014-Jul-23 14:24 142 2 gusting 5 31.1
2014-Jul-23 14:04 140 3 gusting 6 31.1
2014-Jul-23 13:44 166 1 gusting 3 31.1
2014-Jul-23 13:14 140 2 gusting 2 30.0
2014-Jul-23 12:54 155 5 gusting 5 30.0
2014-Jul-23 12:14 140 1 gusting 5 29.4
2014-Jul-23 12:04 133 0 gusting 3 29.4
2014-Jul-23 11:54 130 29.4
2014-Jul-23 11:34 144 28.9
2014-Jul-23 11:14 130 1 gusting 3 28.9
2014-Jul-23 11:04 134 0 gusting 4 28.9
2014-Jul-23 10:54 112 0 gusting 2 28.9
2014-Jul-23 10:44 144 1 gusting 3 28.9
2014-Jul-23 10:24 144 2 gusting 2 28.9
2014-Jul-23 10:14 143 1 gusting 3 28.9
2014-Jul-23 09:24 140 2 gusting 2 28.9
2014-Jul-23 09:04 149 1 gusting 4 28.9
2014-Jul-23 08:54 139 2 gusting 4 28.9
2014-Jul-23 08:34 134 28.9
2014-Jul-23 08:24 133 0 gusting 1 28.9
2014-Jul-23 08:15 138 28.9
2014-Jul-23 07:54 137 28.9
2014-Jul-23 07:34 128 1 gusting 2 28.9
2014-Jul-23 07:24 137 28.9
2014-Jul-23 07:14 123 0 gusting 1 28.9
2014-Jul-23 07:04 135 28.9
2014-Jul-23 06:44 123 0 gusting 3 28.9
2014-Jul-23 06:34 142 1 gusting 2 28.9
2014-Jul-23 06:24 143 1 gusting 1 28.9
2014-Jul-23 05:54 147 1 gusting 2 28.3
2014-Jul-23 05:35 149 28.3
2014-Jul-23 05:24 149 28.3
2014-Jul-23 05:14 149 0 gusting 1 28.3
2014-Jul-23 05:04 149 0 gusting 0 28.3
2014-Jul-23 04:54 150 28.3
2014-Jul-23 04:34 150 28.3
2014-Jul-23 04:24 150 28.3
2014-Jul-23 04:14 150 28.3
2014-Jul-23 03:54 122 28.3
2014-Jul-23 03:44 136 28.3
2014-Jul-23 03:34 120 28.3
2014-Jul-23 03:14 017 27.8
2014-Jul-23 03:04 017 27.8
2014-Jul-23 01:34 017 28.9
2014-Jul-23 01:24 017 28.9
2014-Jul-23 01:14 017 28.9
2014-Jul-23 00:54 017 28.9
2014-Jul-23 00:14 017 29.4
2014-Jul-22 23:54 017 30.0
2014-Jul-22 23:44 017 30.0
2014-Jul-22 23:24 017 0 gusting 2 30.0
2014-Jul-22 23:14 009 1 gusting 2 30.0
2014-Jul-22 23:04 009 2 gusting 2 30.0
2014-Jul-22 22:44 342 2 gusting 2 30.0
2014-Jul-22 22:14 005 30.0
2014-Jul-22 22:04 020 2 gusting 4 30.0
2014-Jul-22 21:54 017 2 gusting 3 30.0
2014-Jul-22 21:44 052 0 gusting 5 30.0
2014-Jul-22 21:34 028 1 gusting 4 30.6
2014-Jul-22 21:14 009 3 gusting 3 30.6
2014-Jul-22 21:04 319 0 gusting 4 30.6
2014-Jul-22 20:54 351 1 gusting 5 30.6
2014-Jul-22 20:44 013 2 gusting 5 30.6
2014-Jul-22 20:24 005 1 gusting 4 30.0
2014-Jul-22 20:14 349 2 gusting 3 30.0
2014-Jul-22 20:04 360 2 gusting 3 30.6
2014-Jul-22 19:54 337 4 gusting 4 30.6
2014-Jul-22 19:34 028 1 gusting 2 30.0
2014-Jul-22 19:24 215 2 gusting 2 29.4
2014-Jul-22 19:14 203 28.9
2014-Jul-22 19:04 203 28.9